{"data":{"norad_id":58438,"intl_designator":"2023-183B","name":"STARLINK-30969","alt_names":[],"object_type":"PAYLOAD","status":"ACTIVE","operator":null,"country":"US","launch_date":"2023-11-28","launch_site_code":"AFETR","launch_vehicle":null,"mission":null,"orbit_class":"UNKNOWN","rcs_meters":null,"size_class":null,"mass_kg":null,"dimensions":null,"purposes":["comms"],"wikipedia_slug":null,"has_3d_model":false,"image_url":null,"decayed_at":null,"tle_current":{"epoch":"2026-09-20T17:39:06.775776Z","epoch_age_seconds":126395,"freshness":"FRESH","line1":"1 58438U 23183B   26263.73549509  .00000099  00000+0  13124-4 0  9998","line2":"2 58438  43.0021  20.1393 0000950 256.8170 103.2575 15.27581607156569","mean_motion":15.27581607,"eccentricity":9.5e-5,"inclination_deg":43.0021,"raan_deg":20.1393,"arg_perigee_deg":256.817,"mean_anomaly_deg":103.2575,"bstar":1.3124e-5,"rev_number":15656,"period_min":94.26664954601,"perigee_km":482.39247188577,"apogee_km":483.69609632975,"semimajor_km":6861.1812841078,"source":"CELESTRAK","updated_at":"2026-09-21T09:00:33.875225Z"}}}